This demonstration page uses our WeatherBlox Daily Observations layout. Learn more.

Left ArrowRight Arrow

39.01783, -85.05884

Hourly Observations for October 27, 2021

Temp ( °F °C ) Dew Point ( °F °C ) Humidity (%) Winds ( mph kmh ) Pressure ( in mb ) Visibility ( mi km ) Precip ( " mm )
12:52 am 00:52 Clear 43 6.1 35 1.7 74 74 NW 6 9 30.01 1016 10 16 N/A
1:52 am 01:52 Clear 43 6.1 35 1.7 74 74 N 6 9 30.00 1016 10 16 N/A
2:52 am 02:52 Clear 42 5.6 35 1.7 76 76 NE 6 9 30.00 1016 10 16 N/A
3:52 am 03:52 Clear 43 6.1 35 1.7 74 74 NE 8 13 30.00 1016 10 16 N/A
4:52 am 04:52 Mostly Clear 42 5.6 35 1.7 76 76 NE 7 11 30.01 1016 10 16 N/A
5:52 am 05:52 Mostly Clear 41 5 35 1.7 79 79 E 9 15 30.01 1016 10 16 N/A
6:52 am 06:52 Mostly Clear 39 3.9 33 0.6 79 79 E 6 9 30.02 1017 10 16 N/A
7:52 am 07:52 Partly Cloudy 39 3.9 34 1.1 82 82 E 3 6 30.03 1017 10 16 N/A
8:52 am 08:52 Partly Cloudy 41 5 34 1.1 76 76 N N/A 30.05 1018 10 16 N/A
9:52 am 09:52 Mostly Cloudy 45 7.2 36 2.2 71 71 N N/A 30.07 1018 10 16 N/A
10:52 am 10:52 Partly Cloudy 48 8.9 37 2.8 66 66 E 9 15 30.06 1018 10 16 N/A
11:52 am 11:52 Partly Cloudy 50 10 37 2.8 61 61 E 8 13 30.05 1018 10 16 N/A
12:52 pm 12:52 Partly Cloudy 52 11.1 39 3.9 61 61 VRB 3 6 30.03 1017 10 16 N/A
1:52 pm 13:52 Partly Cloudy 54 12.2 39 3.9 57 57 NE 5 7 29.99 1016 10 16 N/A
2:52 pm 14:52 Mostly Sunny 55 12.8 40 4.4 57 57 ENE 9 15 29.95 1014 10 16 N/A
3:52 pm 15:52 Mostly Sunny 55 12.8 40 4.4 57 57 E 10 17 29.93 1014 10 16 N/A
4:52 pm 16:52 Mostly Sunny 55 12.8 41 5 59 59 ENE 12 19 29.91 1013 10 16 N/A
5:52 pm 17:52 Mostly Sunny 54 12.2 42 5.6 64 64 ENE 12 19 29.90 1013 10 16 N/A
6:52 pm 18:52 Partly Cloudy 51 10.6 41 5 69 69 ENE 13 20 29.91 1013 10 16 N/A
7:52 pm 19:52 Partly Cloudy 48 8.9 41 5 77 77 E 12 19 29.92 1013 10 16 N/A
8:52 pm 20:52 Mostly Cloudy 47 8.3 41 5 80 80 E 12 19 29.90 1012 10 16 N/A
9:44 pm 21:44 Mostly Cloudy 47 8.3 41 5 80 80 E 9 15 29.89 1012 10 16 N/A
9:52 pm 21:52 Mostly Cloudy 47 8.3 42 5.6 83 83 E 10 17 29.87 1011 10 16 N/A
10:52 pm 22:52 Mostly Cloudy 48 8.9 42 5.6 80 80 E 9 15 29.85 1011 10 16 N/A
11:52 pm 23:52 Cloudy 49 9.4 43 6.1 80 80 E 12 19 29.84 1011 10 16 N/A

Powered by AerisWeather